When you browse on this site, cookies collect data to enhance your experience and personalize the content and advertising you see.
Visit our Privacy Policy to learn more. By continuing to use the site, you agree to this use of cookies and data.
  • In United Kingdom
  • List of Countries
  • For 7 days
  • Water Temperature
  • Weather Map
  • Weather Widgets
  • user-avatar
    Login

    Hourly Weather Alimena

    Today, 2 June, Tuesday

    Time Temperature Precipitation Wind Pressure Humidity
    00:00 +12°C° 0 mm 1 mps 697 mmHg 78%
    01:00 +11°C° 0 mm 1 mps 697 mmHg 79%
    02:00 +11°C° 0 mm 1 mps 697 mmHg 81%
    03:00 +11°C° 0 mm 1 mps 697 mmHg 84%
    04:00 +11°C° 0 mm 1 mps 697 mmHg 86%
    05:00 +12°C° 0 mm 1 mps 697 mmHg 80%
    06:00 +14°C° 0 mm 1 mps 697 mmHg 75%
    07:00 +15°C° 0 mm 1 mps 698 mmHg 69%
    08:00 +18°C° 0 mm 1 mps 698 mmHg 59%
    09:00 +20°C° 0 mm 1 mps 699 mmHg 50%
    10:00 +22°C° 0 mm 1 mps 699 mmHg 40%
    11:00 +21°C° 0 mm 2 mps 699 mmHg 38%
    12:00 +23°C° 0 mm 2 mps 699 mmHg 36%
    13:00 +24°C° 0 mm 3 mps 699 mmHg 34%
    14:00 +22°C° 0 mm 3 mps 699 mmHg 37%
    15:00 +22°C° 0 mm 3 mps 698 mmHg 40%
    16:00 +21°C° 0 mm 4 mps 698 mmHg 43%
    17:00 +19°C° 0 mm 3 mps 697 mmHg 50%
    18:00 +18°C° 0 mm 2 mps 697 mmHg 57%
    19:00 +16°C° 0 mm 1 mps 697 mmHg 63%
    20:00 +15°C° 0 mm 1 mps 696 mmHg 67%
    21:00 +15°C° 0 mm 1 mps 696 mmHg 70%
    22:00 +14°C° 0 mm 1 mps 696 mmHg 74%
    23:00 +13°C° 0 mm 1 mps 696 mmHg 73%

    Tomorrow, 3 June, Wednesday

    Time Temperature Precipitation Wind Pressure Humidity
    00:00 +13°C° 0 mm 1 mps 696 mmHg 72%
    01:00 +13°C° 0 mm 1 mps 696 mmHg 71%
    02:00 +13°C° 0 mm 1 mps 695 mmHg 72%
    03:00 +12°C° 0 mm 1 mps 695 mmHg 74%
    04:00 +12°C° 0 mm 1 mps 695 mmHg 76%
    05:00 +13°C° 0 mm 1 mps 695 mmHg 69%
    06:00 +15°C° 0 mm 1 mps 695 mmHg 63%
    07:00 +16°C° 0 mm 1 mps 696 mmHg 57%
    08:00 +19°C° 0 mm 1 mps 696 mmHg 49%
    09:00 +20°C° 0 mm 2 mps 697 mmHg 42%
    10:00 +21°C° 0 mm 2 mps 697 mmHg 35%
    11:00 +23°C° 0 mm 2 mps 697 mmHg 34%
    12:00 +24°C° 0 mm 2 mps 697 mmHg 32%
    13:00 +25°C° 0 mm 2 mps 697 mmHg 31%
    14:00 +25°C° 0 mm 3 mps 697 mmHg 33%
    15:00 +24°C° 0 mm 3 mps 697 mmHg 34%
    16:00 +24°C° 0 mm 3 mps 697 mmHg 36%
    17:00 +21°C° 0 mm 3 mps 697 mmHg 43%
    18:00 +20°C° 0 mm 2 mps 696 mmHg 50%
    19:00 +18°C° 0 mm 2 mps 695 mmHg 58%
    20:00 +17°C° 0 mm 2 mps 696 mmHg 62%
    21:00 +15°C° 0 mm 1 mps 696 mmHg 67%
    22:00 +14°C° 0 mm 1 mps 696 mmHg 71%
    23:00 +14°C° 0 mm 1 mps 696 mmHg 75%

    Day after tomorrow, 4 June, Thursday

    Time Temperature Precipitation Wind Pressure Humidity
    00:00 +13°C° 0 mm 1 mps 695 mmHg 78%
    01:00 +13°C° 0 mm 1 mps 695 mmHg 81%
    02:00 +13°C° 0 mm 1 mps 695 mmHg 82%
    03:00 +12°C° 0 mm 1 mps 695 mmHg 83%
    04:00 +12°C° 0 mm 1 mps 694 mmHg 84%
    05:00 +14°C° 0 mm 1 mps 695 mmHg 75%
    06:00 +15°C° 0 mm 1 mps 695 mmHg 65%
    07:00 +18°C° 0 mm 1 mps 695 mmHg 56%
    08:00 +19°C° 0 mm 2 mps 696 mmHg 49%
    09:00 +21°C° 0 mm 3 mps 696 mmHg 43%
    10:00 +24°C° 0 mm 3 mps 697 mmHg 36%
    11:00 +25°C° 0 mm 4 mps 697 mmHg 36%
    12:00 +25°C° 0 mm 4 mps 697 mmHg 36%
    13:00 +26°C° 0 mm 5 mps 697 mmHg 36%
    14:00 +25°C° 0 mm 5 mps 696 mmHg 37%
    15:00 +25°C° 0 mm 5 mps 696 mmHg 38%
    16:00 +25°C° 0 mm 5 mps 696 mmHg 38%
    17:00 +22°C° 0 mm 4 mps 695 mmHg 43%
    18:00 +20°C° 0 mm 4 mps 695 mmHg 48%
    19:00 +19°C° 0 mm 3 mps 694 mmHg 52%
    20:00 +18°C° 0 mm 3 mps 694 mmHg 54%
    21:00 +18°C° 0 mm 3 mps 694 mmHg 56%
    22:00 +18°C° 0 mm 3 mps 694 mmHg 58%
    23:00 +18°C° 0 mm 3 mps 694 mmHg 57%

    5 June, Friday

    Time Temperature Precipitation Wind Pressure Humidity
    00:00 +18°C° 0 mm 2 mps 693 mmHg 56%
    01:00 +18°C° 0 mm 2 mps 693 mmHg 54%
    02:00 +17°C° 0 mm 2 mps 693 mmHg 56%
    03:00 +17°C° 0 mm 2 mps 693 mmHg 57%
    04:00 +16°C° 0 mm 2 mps 693 mmHg 58%
    05:00 +17°C° 0.2 mm 2 mps 693 mmHg 62%
    06:00 +17°C° 0.2 mm 2 mps 692 mmHg 66%
    07:00 +17°C° 0.2 mm 2 mps 692 mmHg 70%
    08:00 +18°C° 0.7 mm 2 mps 692 mmHg 70%
    09:00 +19°C° 0.7 mm 3 mps 693 mmHg 71%
    10:00 +20°C° 0.7 mm 4 mps 693 mmHg 71%
    11:00 +20°C° 1.2 mm 4 mps 693 mmHg 70%
    12:00 +20°C° 1.2 mm 3 mps 693 mmHg 70%
    13:00 +21°C° 1.2 mm 3 mps 693 mmHg 69%
    14:00 +21°C° 0.2 mm 4 mps 693 mmHg 62%
    15:00 +22°C° 0.2 mm 5 mps 693 mmHg 54%
    16:00 +22°C° 0.2 mm 6 mps 694 mmHg 47%
    17:00 +20°C° 0 mm 6 mps 694 mmHg 54%
    18:00 +19°C° 0 mm 5 mps 694 mmHg 61%
    19:00 +17°C° 0 mm 4 mps 694 mmHg 68%
    20:00 +16°C° 0 mm 3 mps 694 mmHg 73%
    21:00 +14°C° 0 mm 3 mps 695 mmHg 78%
    22:00 +14°C° 0 mm 2 mps 695 mmHg 84%
    23:00 +14°C° 0 mm 2 mps 695 mmHg 83%

    6 June, Saturday

    Time Temperature Precipitation Wind Pressure Humidity
    00:00 +13°C° 0 mm 2 mps 695 mmHg 83%
    01:00 +13°C° 0 mm 2 mps 695 mmHg 83%
    02:00 +13°C° 0 mm 2 mps 695 mmHg 84%
    03:00 +13°C° 0 mm 2 mps 695 mmHg 85%
    04:00 +12°C° 0 mm 2 mps 695 mmHg 86%
    05:00 +14°C° 0 mm 2 mps 696 mmHg 81%
    06:00 +15°C° 0 mm 2 mps 696 mmHg 76%
    07:00 +16°C° 0 mm 2 mps 697 mmHg 71%
    08:00 +18°C° 0 mm 2 mps 697 mmHg 63%
    09:00 +20°C° 0 mm 2 mps 698 mmHg 55%
    10:00 +21°C° 0 mm 3 mps 699 mmHg 47%
    11:00 +22°C° 0 mm 3 mps 699 mmHg 44%
    12:00 +25°C° 0 mm 3 mps 699 mmHg 41%
    13:00 +26°C° 0 mm 3 mps 699 mmHg 38%
    14:00 +25°C° 0 mm 3 mps 699 mmHg 39%
    15:00 +25°C° 0 mm 3 mps 699 mmHg 41%
    16:00 +25°C° 0 mm 3 mps 699 mmHg 43%
    17:00 +23°C° 0 mm 2 mps 698 mmHg 50%
    18:00 +20°C° 0 mm 2 mps 698 mmHg 58%
    19:00 +20°C° 0 mm 1 mps 698 mmHg 65%
    20:00 +19°C° 0 mm 1 mps 698 mmHg 68%
    21:00 +16°C° 0 mm 1 mps 698 mmHg 71%
    22:00 +15°C° 0 mm 1 mps 698 mmHg 73%
    23:00 +15°C° 0 mm 1 mps 698 mmHg 73%

    7 June, Sunday

    Time Temperature Precipitation Wind Pressure Humidity
    00:00 +15°C° 0 mm 1 mps 698 mmHg 72%
    01:00 +14°C° 0 mm 0 mps 697 mmHg 71%
    02:00 +15°C° 0 mm 1 mps 697 mmHg 69%
    03:00 +15°C° 0 mm 1 mps 697 mmHg 68%
    04:00 +15°C° 0 mm 1 mps 697 mmHg 66%
    05:00 +16°C° 0 mm 1 mps 697 mmHg 61%
    06:00 +19°C° 0 mm 1 mps 698 mmHg 56%
    07:00 +18°C° 0 mm 0 mps 698 mmHg 51%
    08:00 +22°C° 0 mm 1 mps 699 mmHg 45%
    09:00 +24°C° 0 mm 1 mps 699 mmHg 39%
    10:00 +26°C° 0 mm 2 mps 700 mmHg 34%
    11:00 +28°C° 0 mm 2 mps 700 mmHg 31%
    12:00 +29°C° 0 mm 3 mps 700 mmHg 29%
    13:00 +30°C° 0 mm 3 mps 699 mmHg 26%
    14:00 +30°C° 0 mm 3 mps 699 mmHg 27%
    15:00 +29°C° 0 mm 3 mps 699 mmHg 28%
    16:00 +29°C° 0 mm 4 mps 698 mmHg 30%
    17:00 +27°C° 0 mm 3 mps 698 mmHg 36%
    18:00 +25°C° 0 mm 2 mps 698 mmHg 43%
    19:00 +23°C° 0 mm 2 mps 697 mmHg 50%
    20:00 +22°C° 0 mm 1 mps 697 mmHg 52%
    21:00 +21°C° 0 mm 1 mps 697 mmHg 54%
    22:00 +19°C° 0 mm 0 mps 697 mmHg 57%
    23:00 +18°C° 0.1 mm 0 mps 697 mmHg 56%
    Show more